Find Tian Lian 1-01

NORAD ID: 32779 Int'l Des: 2008-019 Owner: CAST Country: CN operational
HEOCIRCULAR

現在のビュー

3D地球を読み込み中...

About Tian Lian 1-01

Tian Lian 1-01 (NORAD 32779) is a satellite launched Apr 25, 2008 by CAST of CN. It operates in HEO, CIRCULAR orbit with a mass of 2475.00 kg.

次回通過

Passes for default location (London). Set your location on the main map for personalized predictions.

高度履歴

Loading altitude history...

軌道要素

1 32779U 08019A 26194.55034573 -.00000168 00000-0 00000+0 0 9995
2 32779 10.2134 58.9882 0005846 236.5022 336.2727 0.97414370 15612
Epoch: Jul 13, 2026 • Age: 20 hours

現在のステータス

高度 36607.6 km
遠地点 / 近地点 N/A
速度 3.05 km/s
衛星直下点 6.10°N, 134.07°E
打ち上げ日 Apr 25, 2008
運用期間 18.2 years
タイプ other

技術仕様

分類 Payload
質量 2475.00 kg
乾燥質量 1060.00 kg
総質量 2475.00 kg
長さ 6.00 m
直径 1.70 m
スパン 18.10 m
形状 Box + 2 Pan + Dish
製造者 CAST
バスタイプ DFH-3
フェーズステータス In Orbit
所有者/国 CAST/CN

Most Searched